Preview of NWS' New Version of Forecast
This preview is not operational and should not be used for support decisions.

Regional Weather Roundup (RWR)

Issued by National Weather Service (NWS)

                            
000
ASUS43 KDTX 220610
RWRMI 
MICHIGAN HOURLY REGIONAL WEATHER ROUNDUP
NATIONAL WEATHER SERVICE DETROIT/PONTIAC MI
200 AM EDT MON APR 22 2019

NOTE: "FAIR" INDICATES FEW OR NO CLOUDS BELOW 12,000 FEET WITH NO
SIGNIFICANT WEATHER AND/OR OBSTRUCTION TO VISIBILITY.

MIZ047>049-052>055-059>063-066>070-074>076-081>083-220700-
SOUTHEAST LOWER MICHIGAN
  
CITY           SKY/WX    TMP DP  RH WIND       PRES   REMARKS
ADRIAN         FAIR      49  44  83 CALM      30.18R                  
6HR MIN TEMP:  48; 6HR MAX TEMP:  62;                                

ALMA           FAIR      56  40  55 S9        30.14S                  
6HR MIN TEMP:  55; 6HR MAX TEMP:  65;                                

ANN ARBOR      FAIR      45  44  97 CALM      30.17S                  
BAD AXE        FAIR      49  42  78 CALM      30.15S                  
6HR MIN TEMP:  46; 6HR MAX TEMP:  57;                                

CARO           FAIR      49  42  76 S5        30.15S                  
DETROIT CITY   FAIR      49  38  65 S5        30.18S                  
6HR MIN TEMP:  48; 6HR MAX TEMP:  56;                                

DETROIT        FAIR      48  41  76 CALM      30.18S                  
6HR MIN TEMP:  48; 6HR MAX TEMP:  58;                                

FLINT          FAIR      50  44  80 S6        30.16S                  
6HR MIN TEMP:  48; 6HR MAX TEMP:  61;                                

GROSSE ILE     FAIR      46  43  90 S5        30.18S                  
6HR MIN TEMP:  46; 6HR MAX TEMP:  53;                                

HILLSDALE      FAIR      50  40  69 S5        30.16S                  
6HR MIN TEMP:  50; 6HR MAX TEMP:  62;                                

HOWELL         FAIR      50  41  72 SE3       30.16S                  
6HR MIN TEMP:  49; 6HR MAX TEMP:  65;                                


CITY           SKY/WX    TMP DP  RH WIND       PRES   REMARKS
JACKSON        FAIR      50  42  74 S6        30.16S                  
6HR MIN TEMP:  50; 6HR MAX TEMP:  65;                                

LAMBERTVILLE   FAIR      47  46  93 CALM      30.18S                  
6HR MIN TEMP:  47; 6HR MAX TEMP:  62;                                

LANSING        FAIR      54  43  66 S7        30.15S                  
6HR MIN TEMP:  54; 6HR MAX TEMP:  65;                                

LAPEER         FAIR      47  42  85 CALM      30.17S                  
6HR MIN TEMP:  47; 6HR MAX TEMP:  61;                                

MASON          FAIR      49  44  81 S8        30.15S                  
6HR MIN TEMP:  49; 6HR MAX TEMP:  66;                                

MONROE         FAIR      49  48  99 CALM      30.17S                  
6HR MIN TEMP:  49; 6HR MAX TEMP:  59;                                

MT. CLEMENS    FAIR      44  44 100 CALM      30.16F                  
6HR MIN TEMP:  44; 6HR MAX TEMP:  54;                                

PONTIAC        FAIR      49  41  74 S5        30.16F                  
6HR MIN TEMP:  49; 6HR MAX TEMP:  60;                                

PORT HOPE        N/A     50  41  71 S7        30.13F                  
6HR MIN TEMP:  47; 6HR MAX TEMP:  53;                                

TRI CITIES     FAIR      55  44  66 S8        30.14S                  
6HR MIN TEMP:  53; 6HR MAX TEMP:  64;                                

MIDLAND        FAIR      57  40  53 CALM      30.13R                  
6HR MIN TEMP:  57; 6HR MAX TEMP:  67;                                

TROY           FAIR      49  37  63 CALM      30.19F                  
SAGINAW HB     FAIR      52  45  76 S8        30.13F                  
$$
MIZ043>046-050>051-056>058-064>065-071>073-077>080-220700-
SOUTHWEST LOWER MICHIGAN
  
CITY           SKY/WX    TMP DP  RH WIND       PRES   REMARKS
BATTLE CREEK   FAIR      53  43  68 S8        30.14S                  
6HR MIN TEMP:  52; 6HR MAX TEMP:  66;                                

BENTON HARBOR  FAIR      57  39  51 SE8       30.10F                  
6HR MIN TEMP:  56; 6HR MAX TEMP:  71;                                

BIG RAPIDS     FAIR      51  39  62 S3        30.09S                  
6HR MIN TEMP:  49; 6HR MAX TEMP:  68;                                

COLDWATER      FAIR      53  44  72 SE7       30.15S                  
6HR MIN TEMP:  53; 6HR MAX TEMP:  65;                                

FREMONT        FAIR      61  34  36 S6        30.08S                  
6HR MIN TEMP:  56; 6HR MAX TEMP:  68;                                

HOLLAND        FAIR      57  41  55 S9        30.10S                  
6HR MIN TEMP:  56; 6HR MAX TEMP:  68;                                

GRAND RAPIDS   FAIR      55  41  59 S10       30.12R                  
6HR MIN TEMP:  55; 6HR MAX TEMP:  69;                                

IONIA          FAIR      54  40  59 S8        30.12S                  
6HR MIN TEMP:  54; 6HR MAX TEMP:  65;                                

KALAMAZOO      FAIR      54  44  69 S5        30.14S                  
6HR MIN TEMP:  54; 6HR MAX TEMP:  68;                                

LUDINGTON      FAIR      62  32  32 S5        30.05R                  
6HR MIN TEMP:  55; 6HR MAX TEMP:  65;                                

MARSHALL       FAIR      52  44  73 SE5       30.14S                  
6HR MIN TEMP:  52; 6HR MAX TEMP:  65;                                

MOUNT PLEASANT FAIR      56  39  53 S5        30.11S                  
6HR MIN TEMP:  52; 6HR MAX TEMP:  67;                                

MUSKEGON       FAIR      61  36  39 SE10      30.08F                  
6HR MIN TEMP:  55; 6HR MAX TEMP:  67;                                

SOUTH HAVEN    FAIR      58  39  49 S7        30.10S                  
$$
MIZ016>042-220700-
NORTHERN LOWER MICHIGAN
  
CITY           SKY/WX    TMP DP  RH WIND       PRES   REMARKS
ALPENA         CLOUDY    44  34  67 E5        30.12S                  
6HR MIN TEMP:  44; 6HR MAX TEMP:  53;                                

BEAVER ISLAND  FAIR      41  30  64 E8        30.10R                  
6HR MIN TEMP:  41; 6HR MAX TEMP:  53;                                

BELLAIRE       FAIR      47  40  76 CALM      30.06F                  
6HR MIN TEMP:  47; 6HR MAX TEMP:  58;                                

CADILLAC       FAIR      61  34  35 S8        30.06F                  
CHARLEVOIX     FAIR      48  32  55 CALM      30.10R                  
6HR MIN TEMP:  43; 6HR MAX TEMP:  52;                                

FRANKFORT      FAIR      54  31  40 CALM      30.02S                  
GAYLORD        FAIR      51  35  54 S3        30.08S                  
6HR MIN TEMP:  51; 6HR MAX TEMP:  65;                                

GRAYLING       CLOUDY    56  36  46 S7        30.08S                  
6HR MIN TEMP:  52; 6HR MAX TEMP:  68;                                

HARBOR SPRINGS MOCLDY    51  26  38 E6        30.08S                  
HOUGHTON LAKE  FAIR      55  35  47 S8        30.09F                  
6HR MIN TEMP:  55; 6HR MAX TEMP:  67;                                

MANISTEE       FAIR      62  31  31 SE8       30.03F                  
OSCODA         FAIR      48  39  69 S3        30.13S                  
6HR MIN TEMP:  47; 6HR MAX TEMP:  52;                                

PELLSTON       MOCLDY    46  31  55 N6        30.10R                  
6HR MIN TEMP:  45; 6HR MAX TEMP:  56;                                

ROGERS CITY    CLOUDY    43  33  68 CALM      30.11F                  
TRAVERSE CITY  FAIR      50  35  56 CALM      30.04S                  
6HR MIN TEMP:  49; 6HR MAX TEMP:  51;                                

$$
MIZ007>008-015-220700-
EASTERN UPPER MICHIGAN
  
CITY           SKY/WX    TMP DP  RH WIND       PRES   REMARKS
KINROSS        CLOUDY    45  32  60 E12       30.14F                  
6HR MIN TEMP:  44; 6HR MAX TEMP:  54; 6HR PCP: TRACE;                

MACKINAC ISLAN CLOUDY    40  31  69 E14       30.12R WCI  32          
6HR MIN TEMP:  39; 6HR MAX TEMP:  48;                                

NEWBERRY       CLOUDY    41  38  91 NE8       30.13R                  
6HR MIN TEMP:  40; 6HR MAX TEMP:  46; 6HR PCP:  0.01;                

S. S. MARIE    CLOUDY    47  36  65 E3        30.14F                  
6HR MIN TEMP:  46; 6HR MAX TEMP:  54; 6HR PCP:  0.01;                

MUNISING         N/A     37  34  89 N8        30.11S WCI  31          
6HR MIN TEMP:  34; 6HR MAX TEMP:  37; 6HR PCP:  0.07;                

$$
MIZ004>006-011>014-085-220700-
CENTRAL UPPER MICHIGAN
  
CITY           SKY/WX    TMP DP  RH WIND       PRES   REMARKS
MANISTIQUE     CLOUDY    44  32  62 N8        30.09S                  
6HR MIN TEMP:  42; 6HR MAX TEMP:  47;                                

ESCANABA       CLOUDY    42  35  76 N8        30.08F                  
6HR MIN TEMP:  41; 6HR MAX TEMP:  48; 6HR PCP: TRACE;                

MENOMINEE      FAIR      44  34  67 NE8       30.06S                  
6HR MIN TEMP:  43; 6HR MAX TEMP:  50;                                

SAWYER-GWINN   CLOUDY    38  36  89 E6        30.09F WCI  34          
6HR MIN TEMP:  37; 6HR MAX TEMP:  39; 6HR PCP:  0.03;                

$$
MIZ001>003-009>011-084-220700-
WESTERN UPPER MICHIGAN
  
CITY           SKY/WX    TMP DP  RH WIND       PRES   REMARKS
IRON MOUNTAIN  CLOUDY    41  37  86 N9        30.07F                  
6HR MIN TEMP:  41; 6HR MAX TEMP:  53; 6HR PCP: TRACE;                

HOUGHTON       CLOUDY    41  38  89 E10       30.12S                  
6HR MIN TEMP:  41; 6HR MAX TEMP:  43; 6HR PCP:  0.10;                

COPPER HARBOR    N/A     38  36  92 CALM      30.15F                  
6HR MIN TEMP:  37; 6HR MAX TEMP:  42; 6HR PCP:  0.13;                

IRONWOOD       LGT RAIN  39  37  93 E12       30.08S WCI  32          
6HR MIN TEMP:  39; 6HR MAX TEMP:  42;                                

$$

ABBREVIATIONS USED IN REMARKS
   TC - TEMPERATURE IN CELSIUS
  WCI - WIND CHILL INDEX
   HX - HEAT INDEX
  VSB - VISIBILITY